SP9INZ-13 Weather Reports


Display with metric or nautical units.
time (UTC)temp
F
wind
direction
speed
MPH
gust
MPH
rain 1hr
in
rain 24hr
in
rain mn
in
humidity
%
barometer
mb
20260510081041 60 0.0 0.0 0.00 0.00 0.00 56 1026.8
20260510075443 59 0.0 0.0 0.00 0.00 0.00 56 1027.3
20260510073845 58 0.0 0.0 0.00 0.00 0.00 57 1027.3
20260510072247 58 0.0 0.0 0.00 0.00 0.00 58 1027.2
20260510070650 58 0.0 0.0 0.00 0.00 0.00 64 1025.6
20260510065051 56 0.0 0.0 0.00 0.00 0.00 67 1025.2
20260510063454 55 0.0 0.0 0.00 0.00 0.00 73 1023.0
20260510061855 54 0.0 0.0 0.00 0.00 0.00 77 1021.9
20260510060257 53 0.0 0.0 0.00 0.00 0.00 81 1021.1
20260510054659 52 0.0 0.0 0.00 0.00 0.00 85 1020.9
20260510053108 51 0.0 0.0 0.00 0.00 0.00 86 1020.7
20260510053101 51 0.0 0.0 0.00 0.00 0.00 86 1020.7
20260510051503 50 0.0 0.0 0.00 0.00 0.00 86 1021.0
20260510045905 51 0.0 0.0 0.00 0.00 0.00 86 1020.6
20260510044308 49 0.0 0.0 0.00 0.00 0.00 86 1021.1
20260510042709 49 0.0 0.0 0.00 0.00 0.00 86 1021.5
20260510041110 50 0.0 0.0 0.00 0.00 0.00 86 1020.9
20260510035513 48 0.0 0.0 0.00 0.00 0.00 84 1020.7
20260510033915 47 0.0 0.0 0.00 0.00 0.00 84 1020.9
20260510032317 46 0.0 0.0 0.00 0.00 0.00 84 1020.5
20260510030719 46 0.0 0.0 0.00 0.00 0.00 85 1020.1
20260510025121 48 0.0 0.0 0.00 0.00 0.00 86 1020.9
20260510023522 48 0.0 0.0 0.00 0.00 0.00 86 1020.7
20260510021924 48 0.0 0.0 0.00 0.00 0.00 86 1020.9
20260510020326 48 0.0 0.0 0.00 0.00 0.00 86 1020.2
20260510014729 49 0.0 0.0 0.00 0.00 0.00 87 1019.9
20260510013130 49 0.0 0.0 0.00 0.00 0.00 87 1020.0
20260510011533 49 0.0 0.0 0.00 0.00 0.00 87 1020.1
20260510005935 49 0.0 0.0 0.00 0.00 0.00 88 1020.1
20260510004337 51 0.0 0.0 0.00 0.00 0.00 85 1020.7
20260510002739 49 0.0 0.0 0.00 0.00 0.00 87 1020.1
20260510001140 50 0.0 0.0 0.00 0.00 0.00 87 1020.3
20260509235544 50 0.0 0.0 0.00 0.00 0.00 87 1019.8
20260509233946 49 0.0 0.0 0.00 0.00 0.00 87 1020.1
20260509232348 50 0.0 0.0 0.00 0.00 0.00 88 1020.2
20260509230749 51 0.0 0.0 0.00 0.00 0.00 87 1020.3
20260509225151 53 0.0 0.0 0.00 0.00 0.00 83 1020.4
20260509223553 53 0.0 0.0 0.00 0.00 0.00 85 1020.3
20260509222003 52 0.0 0.0 0.00 0.00 0.00 85 1020.7
20260509221955 52 0.0 0.0 0.00 0.00 0.00 85 1020.7
20260509220357 53 0.0 0.0 0.00 0.00 0.00 84 1020.7
20260509214800 54 0.0 0.0 0.00 0.00 0.00 81 1021.3
20260509213201 52 0.0 0.0 0.00 0.00 0.00 84 1021.1
20260509211603 53 0.0 0.0 0.00 0.00 0.00 82 1021.6
20260509210005 54 0.0 0.0 0.00 0.00 0.00 80 1022.7
20260509204407 54 0.0 0.0 0.00 0.00 0.00 79 1022.4
20260509202811 56 0.0 0.0 0.00 0.00 0.00 76 1022.8
20260509201211 54 0.0 0.0 0.00 0.00 0.00 81 1022.3
20260509195615 58 0.0 0.0 0.00 0.00 0.00 73 1022.9
20260509194015 58 0.0 0.0 0.00 0.00 0.00 73 1022.9
20260509192417 56 0.0 0.0 0.00 0.00 0.00 77 1022.7
20260509190819 56 0.0 0.0 0.00 0.00 0.00 77 1022.9
20260509185221 56 0.0 0.0 0.00 0.00 0.00 77 1023.0
20260509183623 58 0.0 0.0 0.00 0.00 0.00 73 1023.3
20260509182025 57 0.0 0.0 0.00 0.00 0.00 75 1023.3
20260509180427 57 0.0 0.0 0.00 0.00 0.00 73 1024.0
20260509174830 59 0.0 0.0 0.00 0.00 0.00 69 1024.1
20260509173231 59 0.0 0.0 0.00 0.00 0.00 67 1024.9
20260509171712 58 0.0 0.0 0.00 0.00 0.00 64 1025.8
20260509171633 58 0.0 0.0 0.00 0.00 0.00 64 1025.8
20260509170035 59 0.0 0.0 0.00 0.00 0.00 63 1025.8
20260509164437 58 0.0 0.0 0.00 0.00 0.00 65 1025.7
20260509162840 58 0.0 0.0 0.00 0.00 0.00 66 1025.7
20260509161241 59 0.0 0.0 0.00 0.00 0.00 66 1025.3
20260509155643 58 0.0 0.0 0.00 0.00 0.00 68 1025.3
20260509154046 59 0.0 0.0 0.00 0.00 0.00 66 1025.5
20260509152447 58 0.0 0.0 0.00 0.00 0.00 66 1025.7
20260509150850 60 0.0 0.0 0.00 0.00 0.00 64 1025.5
20260509145251 57 0.0 0.0 0.00 0.00 0.00 68 1025.9
20260509143653 58 0.0 0.0 0.00 0.00 0.00 66 1026.3
20260509142055 59 0.0 0.0 0.00 0.00 0.00 62 1026.6
20260509140459 60 0.0 0.0 0.00 0.00 0.00 58 1027.1
20260509134859 60 0.0 0.0 0.00 0.00 0.00 58 1027.2
20260509133302 59 0.0 0.0 0.00 0.00 0.00 60 1027.4
20260509131703 59 0.0 0.0 0.00 0.00 0.00 59 1027.4
20260509130105 60 0.0 0.0 0.00 0.00 0.00 58 1027.5
20260509124507 61 0.0 0.0 0.00 0.00 0.00 57 1027.3
20260509122909 60 0.0 0.0 0.00 0.00 0.00 58 1027.4
20260509121311 61 0.0 0.0 0.00 0.00 0.00 59 1027.3
20260509115713 60 0.0 0.0 0.00 0.00 0.00 57 1028.1
20260509114115 60 0.0 0.0 0.00 0.00 0.00 59 1028.0
20260509112517 59 0.0 0.0 0.00 0.00 0.00 61 1027.7
20260509110919 61 0.0 0.0 0.00 0.00 0.00 58 1027.8
20260509105321 59 0.0 0.0 0.00 0.00 0.00 57 1028.9
20260509103723 60 0.0 0.0 0.00 0.00 0.00 58 1028.8
20260509102125 60 0.0 0.0 0.00 0.00 0.00 55 1029.6
20260509100527 59 0.0 0.0 0.00 0.00 0.00 58 1029.2
20260509094929 58 0.0 0.0 0.00 0.00 0.00 58 1029.6
20260509093331 59 0.0 0.0 0.00 0.00 0.00 61 1028.5
20260509091733 58 0.0 0.0 0.00 0.00 0.00 65 1028.1
20260509090134 58 0.0 0.0 0.00 0.00 0.00 65 1027.9
20260509084537 58 0.0 0.0 0.00 0.00 0.00 65 1027.7
20260509082939 56 0.0 0.0 0.00 0.00 0.00 70 1026.2